Location: Poprad
(49.0500°N, 20.3000°E)
Time: 19:17:37
(UTC+02:00)

ITUPSAT 1 - Pass Details

Date: 24 April 2024
Orbit: 694 x 707 km, 98.5° (Epoch: 20 May)

Event Time Altitude Azimuth Distance (km) Brightness Sun altitude
Rises 22:49:58 0° 14° (NNE) 3,088 ? -23.4°
Reaches altitude 10° 22:52:13 10° 16° (NNE) 2,164 ? -23.6°
Maximum altitude 22:56:59 85° 106° (ESE) 704 ? -23.9°
Enters shadow 22:57:22 75° 175° (S) 724 ? -23.9°
